Lid_Strength_Index
-1 -1 -1 -1 -0 -1 -0 0 0 0 1 1 0 0 0 0 1 1 5 3 1 -1 1 5 6 5 4 7 7 8 13 15 13 12 11 10 9 9 9 7 6 6 5 4 3
-1 -1 -1 -1 -1 -0 -0 -0 0 1 1 0 0 0 0 0 2 3 0 -1 -1 -1 4 5 5 5 7 8 8 11 14 13 11 10 11 11 10 9 7 7 7 6 4 4 3
-1 -0 -0 -1 -1 -0 -0 -0 0 0 0 0 0 0 0 1 4 4 -1 -2 -2 -2 3 3 4 6 8 9 9 11 13 11 10 10 10 10 9 7 7 9 7 7 5 5 4
-1 -0 0 -0 -1 -1 -0 0 1 0 1 0 0 0 0 2 9 4 -2 -2 -2 -0 2 3 5 7 9 10 9 11 10 9 10 10 10 10 9 8 8 7 4 4 4 4 4
-0 0 0 0 0 -0 0 0 1 1 1 1 0 0 2 5 4 1 -3 -2 -0 1 3 4 5 7 9 9 9 10 10 9 8 8 10 8 8 8 8 5 4 4 4 4 4
0 0 1 1 1 0 0 1 2 1 1 1 0 1 4 7 2 2 1 0 2 3 3 3 5 6 7 8 9 9 9 9 9 9 8 7 8 8 9 5 5 4 4 4 4
0 1 1 1 1 1 1 1 1 1 1 1 0 2 4 5 1 2 3 3 3 3 4 4 4 6 6 8 8 8 10 9 9 9 9 8 10 10 8 5 5 5 4 4 4
0 1 1 1 1 1 1 1 1 1 1 1 1 2 5 1 3 3 3 4 3 3 3 3 4 5 6 6 7 9 10 12 10 9 8 9 12 9 9 7 6 5 5 5 5
1 1 2 2 2 2 2 2 2 2 1 1 2 4 7 1 4 3 3 4 3 3 3 3 4 7 8 10 12 12 14 12 11 8 9 10 11 9 9 8 8 9 8 7 6
1 1 2 2 2 2 2 2 2 1 1 0 1 6 3 4 3 3 3 3 4 4 4 6 8 9 10 11 15 13 13 12 12 10 10 12 12 9 9 9 9 7 6 6 6
1 2 2 2 2 2 4 5 5 5 4 5 5 5 4 4 3 4 4 4 5 6 9 7 10 12 11 11 10 10 12 12 12 10 11 11 11 10 9 8 7 7 6 6 6
1 2 2 2 2 3 4 4 5 5 7 3 3 3 2 4 6 4 3 6 6 9 8 10 11 10 9 8 9 10 11 12 10 9 10 11 11 10 8 8 7 7 7 6 6
1 1 2 3 3 3 6 4 2 2 8 6 4 5 4 4 6 6 4 6 8 9 9 11 9 8 8 9 10 10 11 12 11 10 10 11 12 10 9 8 7 7 6 6 7
2 1 2 3 3 4 6 4 3 4 11 8 6 5 4 4 6 4 5 6 7 9 9 9 8 8 9 9 9 12 9 9 10 12 14 11 16 13 10 10 8 7 7 7 6
2 1 2 1 5 4 3 1 2 5 17 7 6 4 5 6 6 6 5 5 8 9 9 10 9 9 10 9 9 10 8 9 10 12 13 12 15 14 10 11 10 9 8 7 7
1 2 2 4 6 3 1 1 5 12 17 9 6 7 8 6 7 6 6 5 6 8 9 9 7 8 9 8 8 8 9 10 11 12 17 13 14 15 12 10 9 8 8 7 7
2 2 3 2 4 2 1 6 12 17 8 10 9 7 8 8 7 7 8 9 11 12 12 9 9 8 7 10 8 9 12 17 19 19 19 12 14 14 10 8 8 8 8 8 8
2 3 4 2 1 1 4 9 17 11 10 7 8 8 9 8 8 8 9 11 9 9 12 13 15 10 7 10 11 11 12 17 20 20 18 12 16 13 8 7 7 7 7 7 8
2 3 3 2 1 2 6 14 14 10 8 8 8 10 10 8 9 9 10 10 10 10 12 13 13 8 7 8 9 11 13 10 15 16 18 15 13 10 9 8 7 7 6 7 7
3 4 4 1 1 4 9 13 10 7 7 7 11 9 11 10 10 10 10 8 9 9 9 10 13 9 8 8 8 9 9 14 15 20 20 16 16 15 11 10 8 8 8 7 7
4 6 5 1 3 6 12 11 8 6 6 8 9 10 10 10 10 11 10 9 7 8 9 10 11 11 9 11 11 11 12 11 12 15 19 20 16 11 10 9 9 8 7 7 7
5 9 4 5 9 9 11 8 8 7 6 7 7 8 9 9 11 11 11 9 7 7 10 10 12 16 12 9 8 10 11 11 16 16 16 17 16 9 9 9 8 8 7 7 8
6 7 3 7 12 13 8 7 7 8 7 8 8 8 8 10 12 11 10 7 7 8 10 9 12 16 14 11 9 11 10 10 12 15 16 20 17 9 8 8 8 8 7 8 8
6 10 7 6 8 8 10 9 9 6 7 7 8 7 9 10 9 11 10 8 6 7 7 8 11 13 16 14 12 13 12 10 12 17 16 16 13 11 9 9 9 8 8 8 8
6 9 9 10 9 9 9 8 9 10 7 7 8 8 9 13 11 12 10 9 7 7 8 9 13 12 11 11 11 12 12 12 12 12 15 13 12 11 9 9 9 8 8 8 8
7 8 7 9 9 9 9 9 9 9 8 9 9 8 8 11 10 12 10 10 10 8 10 8 14 14 14 11 11 13 12 11 11 11 11 11 13 9 8 8 8 8 8 9 8
4 4 6 9 11 10 10 9 9 7 7 7 8 9 11 9 8 9 9 8 8 9 11 11 14 16 18 13 14 17 12 11 11 11 11 14 11 9 9 9 9 9 9 9 9